Estación meteorológica de Cercs - La Baells (Berguedà, Cercs)

Consulta los datos en tiempo real de la estación meteorológica de Cercs - La Baells





Hora UTC 19:30
Temperatura 25.4 ºC
Humedad 62.0 %
Presión 1022.2 hPa
Pluja 0.0 mm
Velocidad viento 0.2 km/h
Dirección viento W

Datos diarios 2026-09-03



Hora UTC (invierno +1h; verano +2h)
DADES NO VALIDADES
Temperatura (ºC) Humedad (%) Presión (hPa) Velocidad viento (km/h) Precipitación (mm)
Hora UTC Aire Humedad Presión Vel. Dir. Vel. Max Dir. Intent. máx 5 min.
00:05 19.0 79.0 1023.2 0.3 NW 0.3 NW 0.0
00:10 18.8 81.0 1023.2 1.7 NW 1.7 NW 0.0
00:15 18.7 81.5 1023.2 2.0 NW 2.0 NW 0.0
00:20 18.4 82.6 1023.2 1.1 NNW 2.0 NW 0.0
00:25 18.4 82.8 1023.2 1.0 NNW 2.0 NW 0.0
00:30 18.3 83.7 1023.2 0.3 SSW 2.0 NW 0.0
00:35 18.2 83.9 1023.2 0.1 SSE 2.0 NW 0.0
00:40 18.2 83.1 1023.2 0.1 SSW 2.0 NW 0.0
00:45 18.2 82.9 1023.2 0.1 SSW 2.0 NW 0.0
00:50 18.2 81.9 1023.2 0.1 SSW 2.0 NW 0.0
00:55 18.3 81.7 1023.2 0.1 SSW 2.0 NW 0.0
01:00 18.4 81.7 1023.2 0.1 SW 2.0 NW 0.0
01:05 18.4 81.7 1023.2 0.1 WSW 2.0 NW 0.0
01:10 18.1 82.6 1023.2 0.0 WSW 2.0 NW 0.0
01:15 18.1 82.7 1023.2 0.0 SW 2.0 NW 0.0
01:20 18.0 83.4 1023.2 0.1 E 2.0 NW 0.0
01:25 18.0 83.6 1023.2 0.1 ENE 2.0 NW 0.0
01:30 18.0 83.9 1023.2 0.1 E 2.0 NW 0.0
01:35 18.1 83.9 1023.2 0.1 E 2.0 NW 0.0
01:40 17.9 84.5 1023.2 0.1 S 2.0 NW 0.0
01:45 17.9 84.6 1023.2 0.1 S 2.0 NW 0.0
01:50 18.0 83.5 1023.2 0.1 NW 2.0 NW 0.0
01:55 18.0 83.3 1023.2 0.1 NNW 2.0 NW 0.0
01:55 18.0 83.3 1023.2 0.1 NNW 2.0 NW 0.0
01:55 18.0 83.3 1023.2 0.1 NNW 2.0 NW 0.0
02:15 17.8 83.6 1022.2 0.0 N 2.0 NW 0.0
02:20 18.0 82.4 1022.2 0.2 W 2.0 NW 0.0
02:25 18.1 82.2 1022.2 0.2 NW 2.0 NW 0.0
02:30 17.9 82.7 1022.2 0.1 WNW 2.0 NW 0.0
02:35 17.9 82.8 1022.2 0.1 WNW 2.0 NW 0.0
02:40 17.9 82.7 1022.2 0.3 NW 2.0 NW 0.0
02:45 18.0 82.7 1022.2 0.3 NW 2.0 NW 0.0
02:50 17.9 83.3 1022.2 0.1 NW 2.0 NW 0.0
02:55 17.9 83.4 1022.2 0.1 NW 2.0 NW 0.0
03:00 17.8 83.7 1022.2 0.1 SSW 2.0 NW 0.0
03:05 17.8 83.8 1022.2 0.1 S 2.0 NW 0.0
03:10 17.6 84.2 1022.2 0.1 S 2.0 NW 0.0
03:15 17.6 84.3 1022.2 0.1 S 2.0 NW 0.0
03:20 17.4 85.9 1022.2 0.1 WNW 2.0 NW 0.0
03:25 17.3 86.2 1022.2 0.1 NW 2.0 NW 0.0
03:30 17.2 86.8 1022.2 0.1 SSW 2.0 NW 0.0
03:35 17.1 86.9 1022.2 0.1 S 2.0 NW 0.0
03:40 17.1 87.1 1022.2 0.1 NW 2.0 NW 0.0
03:45 17.1 87.1 1022.2 0.1 NNW 2.0 NW 0.0
03:50 17.2 87.0 1022.2 0.1 NNW 2.0 NW 0.0
03:55 17.2 87.0 1022.2 0.1 NNW 2.0 NW 0.0
04:00 17.2 86.1 1022.2 0.3 NNW 2.0 NW 0.0
04:05 17.3 85.9 1022.2 0.3 NNW 2.0 NW 0.0
04:10 17.2 86.0 1022.2 0.5 NNW 2.0 NW 0.0
04:15 17.2 86.0 1022.2 0.5 NNW 2.0 NW 0.0
04:20 17.3 85.1 1022.2 0.6 NNW 2.0 NW 0.0
04:25 17.3 84.9 1022.2 0.6 NNW 2.0 NW 0.0
04:30 17.2 85.8 1022.2 0.3 NNW 2.0 NW 0.0
04:35 17.2 85.9 1022.2 0.3 NNW 2.0 NW 0.0
04:40 17.2 86.0 1022.2 0.5 NNW 2.0 NW 0.0
04:45 17.2 86.0 1022.2 0.5 NNW 2.0 NW 0.0
04:50 17.1 86.5 1022.2 0.6 NW 2.0 NW 0.0
04:55 17.0 86.6 1022.2 0.7 NW 2.0 NW 0.0
05:00 17.1 85.8 1022.2 0.3 NNW 2.0 NW 0.0
05:05 17.1 85.6 1022.2 0.2 NNW 2.0 NW 0.0
05:10 17.1 85.9 1022.2 0.2 NW 2.0 NW 0.0
05:15 17.1 86.0 1022.2 0.2 NW 2.0 NW 0.0
05:20 16.9 87.1 1022.2 0.2 NNW 2.0 NW 0.0
05:25 16.9 87.3 1022.2 0.2 NNW 2.0 NW 0.0
05:30 16.9 86.9 1022.2 0.6 NNW 2.0 NW 0.0
05:35 16.9 86.8 1022.2 0.7 NNW 2.0 NW 0.0
05:40 16.9 85.8 1022.2 0.4 NNW 2.0 NW 0.0
05:45 16.9 85.6 1022.2 0.3 NNW 2.0 NW 0.0
05:50 16.9 86.2 1022.2 0.1 NW 2.0 NW 0.0
05:55 16.9 86.3 1022.2 0.1 NW 2.0 NW 0.0
06:00 16.8 87.6 1022.2 0.2 NW 2.0 NW 0.0
06:00 16.8 87.6 1022.2 0.2 NW 2.0 NW 0.0
06:10 16.8 87.3 1023.0 0.3 NNW 2.0 NW 0.0
06:15 16.8 87.2 1023.2 0.3 NNW 2.0 NW 0.0
06:20 17.0 85.8 1023.2 0.3 NNW 2.0 NW 0.0
06:25 17.1 85.4 1023.2 0.3 NNW 2.0 NW 0.0
06:30 17.3 84.3 1023.2 0.4 NNW 2.0 NW 0.0
06:35 17.4 84.1 1023.2 0.4 NNW 2.0 NW 0.0
06:40 17.7 82.6 1023.2 0.3 NNW 2.0 NW 0.0
06:45 17.8 82.2 1023.2 0.3 NNW 2.0 NW 0.0
06:50 18.4 79.6 1023.2 0.2 NW 2.0 NW 0.0
06:55 18.5 79.1 1023.2 0.2 NW 2.0 NW 0.0
07:00 19.0 77.2 1023.2 0.2 NW 2.0 NW 0.0
07:05 19.1 76.8 1023.2 0.3 NNW 2.0 NW 0.0
07:10 19.6 74.4 1023.2 0.5 NW 2.0 NW 0.0
07:15 19.7 74.0 1023.2 0.6 NW 2.0 NW 0.0
07:20 19.9 72.5 1023.2 0.4 NNW 2.0 NW 0.0
07:25 20.0 72.1 1023.2 0.4 NNW 2.0 NW 0.0
07:30 20.5 70.5 1023.2 0.4 NNW 2.0 NW 0.0
07:35 20.6 70.1 1023.2 0.3 NNW 2.0 NW 0.0
07:40 21.1 68.3 1023.2 0.7 NW 2.0 NW 0.0
07:45 21.2 67.9 1023.2 0.7 NW 2.0 NW 0.0
07:50 21.7 65.9 1023.2 0.4 NNW 2.0 NW 0.0
07:55 21.8 65.6 1023.2 0.4 NNW 2.0 NW 0.0
08:00 22.3 64.1 1023.2 0.2 SSW 2.0 NW 0.0
08:05 22.4 63.7 1023.2 0.1 S 2.0 NW 0.0
08:10 23.2 61.8 1023.2 0.1 SSW 2.0 NW 0.0
08:15 23.3 61.5 1023.2 0.1 SW 2.0 NW 0.0
08:20 23.9 60.4 1023.2 0.1 SW 2.0 NW 0.0
08:25 24.1 60.2 1023.2 0.1 WSW 2.0 NW 0.0
08:30 23.8 60.5 1023.2 0.2 SSW 2.0 NW 0.0
08:35 23.7 60.6 1023.2 0.2 S 2.0 NW 0.0
08:40 23.5 61.1 1023.2 0.2 NNE 2.0 NW 0.0
08:45 23.5 61.2 1023.2 0.2 N 2.0 NW 0.0
08:50 24.1 59.5 1023.2 0.5 WNW 2.0 NW 0.0
08:55 24.2 59.2 1023.2 0.5 NNW 2.0 NW 0.0
09:00 24.6 57.9 1023.2 0.2 ENE 2.0 NW 0.0
09:05 24.7 57.7 1023.2 0.2 NNE 2.0 NW 0.0
09:10 25.5 53.0 1023.2 1.6 ENE 2.0 NW 0.0
09:15 25.7 52.1 1023.2 1.9 ENE 2.0 NW 0.0
09:20 25.7 50.7 1023.2 1.9 ENE 2.0 NW 0.0
09:25 25.7 50.5 1023.2 1.9 ENE 2.0 NW 0.0
09:30 26.5 48.9 1023.2 1.8 ENE 2.0 NW 0.0
09:35 26.7 48.5 1023.2 1.7 ENE 2.0 NW 0.0
09:40 26.9 47.1 1023.2 2.1 ENE 2.1 ENE 0.0
09:45 27.0 46.8 1023.2 2.1 ENE 2.1 ENE 0.0
09:50 26.7 47.3 1023.2 1.3 ENE 2.1 ENE 0.0
09:55 26.6 47.4 1023.2 1.2 ENE 2.1 ENE 0.0
10:00 26.9 46.8 1023.2 1.6 ENE 2.1 ENE 0.0
10:05 27.0 46.7 1023.2 1.7 ENE 2.1 ENE 0.0
10:10 27.5 45.4 1023.2 1.4 ENE 2.1 ENE 0.0
10:15 27.6 45.2 1023.2 1.4 ENE 2.1 ENE 0.0
10:20 27.8 44.0 1023.2 1.9 ENE 2.1 ENE 0.0
10:25 27.8 43.8 1023.2 2.0 ENE 2.1 ENE 0.0
10:30 27.7 44.4 1023.2 1.7 ENE 2.1 ENE 0.0
10:35 27.6 44.6 1023.2 1.7 ENE 2.1 ENE 0.0
10:40 28.5 43.2 1022.3 1.1 ENE 2.1 ENE 0.0
10:45 28.6 43.0 1022.2 1.0 NE 2.1 ENE 0.0
10:50 28.4 42.8 1022.2 1.4 ENE 2.1 ENE 0.0
10:55 28.4 42.7 1022.2 1.5 ENE 2.1 ENE 0.0
11:00 28.2 42.9 1022.2 0.6 NE 2.1 ENE 0.0
11:05 28.2 43.0 1022.2 0.4 NE 2.1 ENE 0.0
11:10 28.7 41.9 1022.2 0.9 ENE 2.1 ENE 0.0
11:15 28.8 41.7 1022.2 1.0 ENE 2.1 ENE 0.0
11:20 29.0 41.4 1022.2 1.1 ENE 2.1 ENE 0.0
11:25 29.1 41.3 1022.2 1.1 ENE 2.1 ENE 0.0
11:30 29.5 40.6 1022.2 1.0 ENE 2.1 ENE 0.0
11:35 29.6 40.5 1022.2 0.9 ENE 2.1 ENE 0.0
11:40 29.6 40.2 1022.2 1.1 NE 2.1 ENE 0.0
11:45 29.7 40.2 1022.2 1.1 NE 2.1 ENE 0.0
11:50 30.1 39.2 1022.2 0.6 SE 2.1 ENE 0.0
11:55 30.2 39.0 1022.2 0.5 SSE 2.1 ENE 0.0
12:00 30.5 37.5 1022.2 1.5 ESE 2.1 ENE 0.0
12:05 30.6 37.3 1022.2 1.7 E 2.1 ENE 0.0
12:10 30.3 38.3 1021.4 0.8 E 2.1 ENE 0.0
12:15 30.3 38.5 1021.2 0.6 E 2.1 ENE 0.0
12:20 30.6 36.9 1021.2 0.9 E 2.1 ENE 0.0
12:25 30.7 36.6 1021.2 0.9 E 2.1 ENE 0.0
12:30 30.7 36.5 1021.2 0.8 ESE 2.1 ENE 0.0
12:35 30.8 36.5 1021.2 0.8 ESE 2.1 ENE 0.0
12:40 30.9 36.0 1021.2 1.4 ENE 2.1 ENE 0.0
12:45 30.9 35.9 1021.2 1.5 ENE 2.1 ENE 0.0
12:50 31.5 35.1 1021.2 1.3 ESE 2.1 ENE 0.0
12:55 31.7 34.9 1021.2 1.2 ESE 2.1 ENE 0.0
13:00 32.2 34.0 1021.2 1.1 E 2.1 ENE 0.0
13:05 32.3 33.9 1021.2 1.1 E 2.1 ENE 0.0
13:10 31.3 34.8 1021.2 1.8 E 2.1 ENE 0.0
13:15 31.1 35.0 1021.2 1.9 E 2.1 ENE 0.0
13:20 32.0 34.1 1021.2 1.6 E 2.1 ENE 0.0
13:25 32.1 33.9 1021.2 1.6 E 2.1 ENE 0.0
13:30 31.6 34.4 1021.2 1.3 E 2.1 ENE 0.0
13:35 31.5 34.6 1021.2 1.2 ESE 2.1 ENE 0.0
13:40 31.8 34.0 1021.2 1.7 E 2.1 ENE 0.0
13:45 31.8 33.9 1021.2 1.7 ENE 2.1 ENE 0.0
13:50 31.9 33.7 1021.2 1.6 E 2.1 ENE 0.0
13:55 31.9 33.7 1021.2 1.5 E 2.1 ENE 0.0
14:00 32.0 33.0 1021.2 2.1 E 2.1 E 0.0
14:05 32.1 32.8 1021.2 2.2 E 2.2 E 0.0
14:10 32.9 31.6 1020.4 1.1 ESE 2.2 E 0.0
14:15 33.1 31.3 1020.2 0.9 SE 2.2 E 0.0
14:20 33.4 30.5 1020.2 1.1 ESE 2.2 E 0.0
14:25 33.4 30.4 1020.2 1.2 ESE 2.2 E 0.0
14:30 33.2 29.9 1020.2 1.6 ESE 2.2 E 0.0
14:35 33.2 29.8 1020.2 1.7 E 2.2 E 0.0
14:40 33.7 29.3 1020.2 1.0 ESE 2.2 E 0.0
14:45 33.8 29.3 1020.2 0.8 SE 2.2 E 0.0
14:50 33.4 29.5 1020.2 1.5 E 2.2 E 0.0
14:55 33.3 29.6 1020.2 1.6 E 2.2 E 0.0
15:00 33.0 30.5 1020.2 1.9 ESE 2.2 E 0.0
15:05 32.9 30.6 1020.2 1.9 SE 2.2 E 0.0
15:10 33.1 30.6 1020.2 1.6 ESE 2.2 E 0.0
15:15 33.2 30.6 1020.2 1.5 E 2.2 E 0.0
15:20 32.8 31.6 1020.2 1.7 ESE 2.2 E 0.0
15:25 32.7 31.8 1020.2 1.8 ESE 2.2 E 0.0
15:30 32.8 31.9 1020.2 1.7 SE 2.2 E 0.0
15:35 32.8 31.9 1020.2 1.7 SE 2.2 E 0.0
15:40 32.6 32.4 1020.2 1.9 ESE 2.2 E 0.0
15:45 32.6 32.6 1020.2 1.9 ESE 2.2 E 0.0
15:50 32.1 34.0 1020.2 2.9 ESE 2.9 ESE 0.0
15:55 32.0 34.4 1020.2 3.2 ESE 3.2 ESE 0.0
16:00 31.7 35.7 1020.2 1.4 ESE 3.2 ESE 0.0
16:05 31.7 35.9 1020.2 1.0 ESE 3.2 ESE 0.0
16:10 31.6 36.4 1020.2 1.2 ESE 3.2 ESE 0.0
16:15 31.5 36.6 1020.2 1.3 ESE 3.2 ESE 0.0
16:20 31.4 36.8 1020.2 1.5 SE 3.2 ESE 0.0
16:25 31.4 36.8 1020.2 1.6 SE 3.2 ESE 0.0
16:30 31.1 37.4 1020.2 1.9 ESE 3.2 ESE 0.0
16:35 31.1 37.5 1020.2 1.9 ESE 3.2 ESE 0.0
16:40 31.1 37.9 1020.2 1.7 SE 3.2 ESE 0.0
16:45 31.1 38.0 1020.2 1.6 SE 3.2 ESE 0.0
16:50 31.0 38.5 1021.1 1.6 SSE 3.2 ESE 0.0
16:55 31.0 38.5 1021.2 1.5 SSE 3.2 ESE 0.0
17:00 30.7 39.3 1021.2 1.1 SSE 3.2 ESE 0.0
17:05 30.7 39.5 1021.2 1.1 SSE 3.2 ESE 0.0
17:10 30.4 40.5 1021.2 2.2 SSE 3.2 ESE 0.0
17:15 30.4 40.6 1021.2 2.4 SE 3.2 ESE 0.0
17:20 30.0 41.7 1021.2 1.5 SE 3.2 ESE 0.0
17:25 29.9 41.9 1021.2 1.3 SE 3.2 ESE 0.0
17:30 29.6 43.1 1021.2 1.4 SE 3.2 ESE 0.0
17:35 29.6 43.3 1021.2 1.4 SE 3.2 ESE 0.0
17:40 29.2 44.8 1021.2 1.1 ESE 3.2 ESE 0.0
17:45 29.1 45.1 1021.2 1.1 ESE 3.2 ESE 0.0
17:50 28.8 46.8 1021.2 0.8 SE 3.2 ESE 0.0
17:55 28.8 47.1 1021.2 0.8 SE 3.2 ESE 0.0
18:00 28.6 48.4 1021.2 1.7 SE 3.2 ESE 0.0
18:05 28.6 48.6 1021.2 1.9 SE 3.2 ESE 0.0
18:10 28.3 50.0 1021.2 1.2 SSE 3.2 ESE 0.0
18:15 28.2 50.2 1021.2 1.1 SSE 3.2 ESE 0.0
18:20 27.7 51.8 1021.2 0.4 E 3.2 ESE 0.0
18:25 27.7 52.1 1021.2 0.2 ENE 3.2 ESE 0.0
18:30 27.6 53.3 1021.2 0.5 SE 3.2 ESE 0.0
18:35 27.6 53.5 1021.2 0.6 SE 3.2 ESE 0.0
18:40 27.4 54.6 1021.2 0.2 NE 3.2 ESE 0.0
18:45 27.4 54.9 1021.2 0.2 NNE 3.2 ESE 0.0
18:50 26.8 56.4 1021.2 0.2 NW 3.2 ESE 0.0
18:55 26.7 56.7 1021.2 0.2 N 3.2 ESE 0.0
19:00 26.3 58.1 1021.2 0.1 NNW 3.2 ESE 0.0
19:05 26.3 58.4 1021.2 0.1 NNW 3.2 ESE 0.0
19:10 25.9 59.8 1021.2 0.2 SSE 3.2 ESE 0.0
19:15 25.9 60.1 1021.2 0.2 SE 3.2 ESE 0.0
19:20 25.6 62.0 1022.0 0.1 SSW 3.2 ESE 0.0
19:25 25.5 62.5 1022.2 0.1 SSW 3.2 ESE 0.0
19:30 25.4 62.0 1022.2 0.2 W 3.2 ESE 0.0
Máxima 33.8 87.6 1023.2 3.2 ESE 3.2 ESE 0.0
Mínima 16.8 29.3 1020.2
Total 0.0